Location: Northam
(31.6525°S, 116.6655°E)
Time: 17:57:05
(UTC+08:00)

X-37B - Visible Passes

Search period start: 02 July 2020 00:00
Search period end: 12 July 2020 00:00
Orbit: 384 x 389 km, 45.0° (Epoch: 25 June)

Date Brightness Start Highest point End Pass type
(mag) Time Alt. Az. Time Alt. Az. Time Alt. Az.
02 Jul ? 06:38:44 10° SW 06:41:53 46° SSE 06:45:00 10° ENE visible
03 Jul ? 05:42:37 24° S 05:43:12 25° SSE 05:45:57 10° E visible
04 Jul ? 06:19:07 18° WSW 06:21:22 81° NW 06:24:34 10° NE visible
05 Jul ? 05:23:24 39° ESE 05:23:24 39° ESE 05:25:54 10° ENE visible
06 Jul ? 06:00:02 30° WNW 06:00:45 34° NW 06:03:42 10° NNE visible
07 Jul ? 05:04:26 19° NE 05:04:26 19° NE 05:05:28 10° NE visible
08 Jul ? 05:41:13 13° NNW 05:41:13 13° NNW 05:42:06 10° N visible
11 Jul ? 19:13:40 10° NNW 19:14:53 19° N 19:14:53 19° N visible
